This is the latest recevied weather packets stored in our database for station/object KE1THD. If no packets are shown the sender has not sent any weather packets the latest 10 day(s).
| Time | Temp. | Humidity | Pressure | Rain* | Wind** | Luminosity | Snow |
|---|---|---|---|---|---|---|---|
| 1777983564 | 8.89° C | 54% | 1010.9 hPa | 0 mm | - | 62 W/m² | - |
| 1777983261 | 8.89° C | 55% | 1010.6 hPa | 0 mm | - | 61 W/m² | - |
| 1777982957 | 8.89° C | 54% | 1010.8 hPa | 0 mm | - | 67 W/m² | - |
| 1777982653 | 8.89° C | 54% | 1010.7 hPa | 0 mm | - | 61 W/m² | - |
| 1777982352 | 8.89° C | 56% | 1010.6 hPa | 0 mm | - | 53 W/m² | - |
| 1777982049 | 8.89° C | 56% | 1010.5 hPa | 0 mm | - | 46 W/m² | - |
| 1777981747 | 8.89° C | 57% | 1010.5 hPa | 0 mm | - | 33 W/m² | - |
| 1777981443 | 8.89° C | 57% | 1010.1 hPa | 0 mm | - | 24 W/m² | - |
| 1777981140 | 8.89° C | 57% | 1010.4 hPa | 0 mm | - | 20 W/m² | - |
| 1777980836 | 8.89° C | 58% | 1010.1 hPa | 0 mm | - | 18 W/m² | - |
| 1777980532 | 8.89° C | 60% | 1010.1 hPa | 0 mm | - | 13 W/m² | - |
| 1777980230 | 8.33° C | 59% | 1010.1 hPa | 0 mm | - | 7 W/m² | - |
| 1777979925 | 8.33° C | 62% | 1010.2 hPa | 0 mm | - | 0 W/m² | - |
| 1777979621 | 8.33° C | 61% | 1010.3 hPa | 0 mm | - | 0 W/m² | - |
| 1777979317 | 8.33° C | 63% | 1010 hPa | 0 mm | - | 0 W/m² | - |
| 1777979015 | 8.89° C | 59% | 1009.8 hPa | 0 mm | - | 0 W/m² | - |
| 1777978711 | 8.89° C | 59% | 1009.1 hPa | 0 mm | - | 0 W/m² | - |
| 1777978407 | 8.89° C | 61% | 1008.8 hPa | 0 mm | - | 0 W/m² | - |
| 1777978103 | 8.89° C | 59% | 1008.6 hPa | 0 mm | - | 0 W/m² | - |
| 1777977801 | 8.89° C | 61% | 1007.9 hPa | 0 mm | - | 0 W/m² | - |
| 1777977497 | 8.89° C | 60% | 1008.2 hPa | 0 mm | - | 0 W/m² | - |
| 1777977195 | 8.89° C | 55% | 1008.9 hPa | 0 mm | - | 0 W/m² | - |
| 1777976892 | 8.89° C | 55% | 1008.8 hPa | 0 mm | - | 0 W/m² | - |
| 1777976590 | 8.89° C | 55% | 1009.4 hPa | 0 mm | - | 0 W/m² | - |
| 1777976289 | 9.44° C | 55% | 1009.1 hPa | 0 mm | - | 0 W/m² | - |
* Rain latest hour (hover to see other rain measurements)
** Current wind speed in m/s (hover to see current wind gust speed)